| time (UTC) | temp F | wind direction | speed MPH | gust MPH | rain 1hr in | rain 24hr in | rain mn in | humidity % | barometer mb |
| 20260508062520 | 31 | 0.0 | 0.0 | 0.00 | 0.00 | 0.00 | 85 | 1009.8 | |
| 20260508061536 | 31 | 0.0 | 0.0 | 0.00 | 0.00 | 0.00 | 84 | 1009.9 | |
| 20260508060536 | 31 | 0.0 | 0.0 | 0.00 | 0.00 | 0.00 | 85 | 1009.9 | |
| 20260508055528 | 31 | 0.0 | 0.0 | 0.00 | 0.00 | 0.00 | 86 | 1010.0 | |
| 20260508054519 | 31 | 0.0 | 0.0 | 0.00 | 0.00 | 0.00 | 86 | 1010.0 | |
| 20260508053520 | 31 | 0.0 | 0.0 | 0.00 | 0.00 | 0.00 | 86 | 1010.0 | |
| 20260508052519 | 31 | 0.0 | 0.0 | 0.00 | 0.00 | 0.00 | 85 | 1010.1 | |
| 20260508051519 | 31 | 0.0 | 0.0 | 0.00 | 0.00 | 0.00 | 85 | 1010.1 | |
| 20260508050539 | 31 | 0.0 | 0.0 | 0.00 | 0.00 | 0.00 | 85 | 1010.3 | |
| 20260508045519 | 32 | 0.0 | 0.0 | 0.00 | 0.00 | 0.00 | 85 | 1010.3 | |
| 20260508044519 | 32 | 0.0 | 0.0 | 0.00 | 0.00 | 0.00 | 84 | 1010.2 | |
| 20260508043527 | 32 | 0.0 | 0.0 | 0.00 | 0.00 | 0.00 | 83 | 1010.2 | |
| 20260508042519 | 32 | 0.0 | 0.0 | 0.00 | 0.00 | 0.00 | 84 | 1010.2 | |
| 20260508041519 | 32 | 0.0 | 0.0 | 0.00 | 0.00 | 0.00 | 83 | 1010.3 | |
| 20260508040607 | 33 | 0.0 | 0.0 | 0.00 | 0.00 | 0.00 | 82 | 1010.3 | |
| 20260508035539 | 33 | 0.0 | 0.0 | 0.00 | 0.00 | 0.00 | 82 | 1010.3 | |
| 20260508034527 | 33 | 0.0 | 0.0 | 0.00 | 0.00 | 0.00 | 82 | 1010.1 | |
| 20260508033527 | 34 | 0.0 | 0.0 | 0.00 | 0.00 | 0.00 | 81 | 1010.2 | |
| 20260508032536 | 34 | 0.0 | 0.0 | 0.00 | 0.00 | 0.00 | 79 | 1010.2 | |
| 20260508031519 | 34 | 0.0 | 0.0 | 0.00 | 0.00 | 0.00 | 78 | 1010.1 | |
| 20260508030519 | 35 | 0.0 | 0.0 | 0.00 | 0.00 | 0.00 | 74 | 1010.2 | |
| 20260508025548 | 35 | 0.0 | 0.0 | 0.00 | 0.00 | 0.00 | 74 | 1010.2 | |
| 20260508024518 | 36 | 0.0 | 0.0 | 0.00 | 0.00 | 0.00 | 72 | 1010.1 | |
| 20260508023519 | 37 | 0.0 | 0.0 | 0.00 | 0.00 | 0.00 | 70 | 1010.1 | |
| 20260508022519 | 37 | 0.0 | 0.0 | 0.00 | 0.00 | 0.00 | 68 | 1010.1 | |
| 20260508021519 | 38 | 0.0 | 0.0 | 0.00 | 0.00 | 0.00 | 68 | 1010.0 | |
| 20260508020536 | 39 | 0.0 | 0.0 | 0.00 | 0.00 | 0.00 | 64 | 1010.0 | |
| 20260508015519 | 40 | 0.0 | 0.0 | 0.00 | 0.00 | 0.00 | 62 | 1010.0 | |
| 20260508014539 | 41 | 0.0 | 0.0 | 0.00 | 0.00 | 0.00 | 61 | 1009.6 | |
| 20260508013519 | 42 | 0.0 | 0.0 | 0.00 | 0.00 | 0.00 | 58 | 1009.7 | |
| 20260508012527 | 43 | 0.0 | 0.0 | 0.00 | 0.00 | 0.00 | 57 | 1009.7 | |
| 20260508011559 | 44 | 0.0 | 0.0 | 0.00 | 0.00 | 0.00 | 57 | 1009.7 | |
| 20260508010536 | 45 | 0.0 | 0.0 | 0.00 | 0.00 | 0.00 | 52 | 1009.7 | |
| 20260508005539 | 46 | 0.0 | 0.0 | 0.00 | 0.00 | 0.00 | 46 | 1009.7 | |
| 20260508004519 | 47 | 0.0 | 0.0 | 0.00 | 0.00 | 0.00 | 45 | 1009.5 | |
| 20260508003547 | 47 | 0.0 | 0.0 | 0.00 | 0.00 | 0.00 | 45 | 1009.4 | |
| 20260508002518 | 48 | 0.0 | 0.0 | 0.00 | 0.00 | 0.00 | 43 | 1009.5 | |
| 20260508001527 | 49 | 0.0 | 0.0 | 0.00 | 0.00 | 0.00 | 41 | 1009.3 | |
| 20260508000518 | 50 | 0.0 | 0.0 | 0.00 | 0.00 | 0.00 | 40 | 1009.2 | |
| 20260507235535 | 50 | 0.0 | 1.0 | 0.00 | 0.00 | 0.00 | 40 | 1009.1 | |
| 20260507234548 | 51 | 0.0 | 0.0 | 0.00 | 0.00 | 0.00 | 40 | 1009.0 | |
| 20260507233527 | 51 | 0.0 | 2.0 | 0.00 | 0.00 | 0.00 | 41 | 1009.0 | |
| 20260507232545 | 51 | 0.0 | 5.0 | 0.00 | 0.00 | 0.00 | 39 | 1009.0 | |
| 20260507231518 | 51 | 0.0 | 1.0 | 0.00 | 0.00 | 0.00 | 41 | 1009.0 | |
| 20260507230527 | 52 | 0.0 | 0.0 | 0.00 | 0.00 | 0.00 | 38 | 1009.2 | |
| 20260507225530 | 52 | 0.0 | 3.0 | 0.00 | 0.00 | 0.00 | 37 | 1009.2 | |
| 20260507224518 | 53 | 0.0 | 2.0 | 0.00 | 0.00 | 0.00 | 37 | 1009.3 | |
| 20260507223547 | 53 | 0.0 | 3.0 | 0.00 | 0.00 | 0.00 | 38 | 1009.3 | |
| 20260507222556 | 54 | 0.0 | 3.0 | 0.00 | 0.00 | 0.00 | 37 | 1009.3 | |
| 20260507221535 | 54 | 0.0 | 5.0 | 0.00 | 0.00 | 0.00 | 36 | 1009.3 | |
| 20260507220518 | 54 | 0.0 | 3.0 | 0.00 | 0.00 | 0.00 | 34 | 1009.4 | |
| 20260507215539 | 55 | 0.0 | 2.0 | 0.00 | 0.00 | 0.00 | 38 | 1009.3 | |
| 20260507214519 | 54 | 0.0 | 6.0 | 0.00 | 0.00 | 0.00 | 38 | 1009.5 | |
| 20260507213520 | 55 | 0.0 | 2.0 | 0.00 | 0.00 | 0.00 | 34 | 1009.3 | |
| 20260507212519 | 56 | 0.0 | 2.0 | 0.00 | 0.00 | 0.00 | 34 | 1009.5 | |
| 20260507211518 | 56 | 0.0 | 4.0 | 0.00 | 0.00 | 0.00 | 35 | 1009.4 | |
| 20260507210527 | 55 | 0.0 | 3.0 | 0.00 | 0.00 | 0.00 | 35 | 1009.4 | |
| 20260507205529 | 55 | 0.0 | 2.0 | 0.00 | 0.00 | 0.00 | 36 | 1009.5 | |
| 20260507204600 | 54 | 23 | 1.0 | 8.0 | 0.00 | 0.00 | 0.00 | 37 | 1009.6 |
| 20260507203518 | 54 | 0.0 | 3.0 | 0.00 | 0.00 | 0.00 | 36 | 1009.6 | |
| 20260507202520 | 55 | 0.0 | 2.0 | 0.00 | 0.00 | 0.00 | 37 | 1009.8 | |
| 20260507201519 | 54 | 0.0 | 2.0 | 0.00 | 0.00 | 0.00 | 39 | 1009.8 | |
| 20260507200529 | 54 | 0.0 | 1.0 | 0.00 | 0.00 | 0.00 | 37 | 1009.8 | |
| 20260507195528 | 54 | 0.0 | 1.0 | 0.00 | 0.00 | 0.00 | 38 | 1010.0 | |
| 20260507194539 | 56 | 0.0 | 3.0 | 0.00 | 0.00 | 0.00 | 35 | 1010.1 | |
| 20260507193527 | 56 | 0.0 | 5.0 | 0.00 | 0.00 | 0.00 | 36 | 1010.2 | |
| 20260507192518 | 55 | 0.0 | 0.0 | 0.00 | 0.00 | 0.00 | 38 | 1010.2 | |
| 20260507191528 | 54 | 0.0 | 1.0 | 0.00 | 0.00 | 0.00 | 41 | 1010.3 | |
| 20260507190519 | 53 | 225 | 1.0 | 3.0 | 0.00 | 0.00 | 0.00 | 40 | 1010.3 |
| 20260507185520 | 52 | 0.0 | 2.0 | 0.00 | 0.00 | 0.00 | 43 | 1010.3 | |
| 20260507184520 | 52 | 0.0 | 5.0 | 0.00 | 0.00 | 0.00 | 41 | 1010.3 | |
| 20260507183545 | 54 | 225 | 1.0 | 4.0 | 0.00 | 0.00 | 0.00 | 38 | 1010.3 |
| 20260507182520 | 52 | 0.0 | 3.0 | 0.00 | 0.00 | 0.00 | 42 | 1010.4 | |
| 20260507181520 | 51 | 0.0 | 3.0 | 0.00 | 0.00 | 0.00 | 44 | 1010.6 | |
| 20260507180520 | 50 | 0.0 | 1.0 | 0.00 | 0.00 | 0.00 | 46 | 1010.7 | |
| 20260507175520 | 50 | 0.0 | 2.0 | 0.00 | 0.00 | 0.00 | 42 | 1010.8 | |
| 20260507174520 | 51 | 0.0 | 3.0 | 0.00 | 0.00 | 0.00 | 44 | 1011.0 | |
| 20260507173520 | 52 | 23 | 1.0 | 8.0 | 0.00 | 0.00 | 0.00 | 42 | 1011.0 |
| 20260507172600 | 53 | 180 | 1.0 | 3.0 | 0.00 | 0.00 | 0.00 | 41 | 1011.2 |
| 20260507171520 | 52 | 0.0 | 1.0 | 0.00 | 0.00 | 0.00 | 43 | 1011.2 | |
| 20260507170545 | 52 | 0.0 | 3.0 | 0.00 | 0.00 | 0.00 | 43 | 1011.6 | |
| 20260507165518 | 53 | 23 | 1.0 | 5.0 | 0.00 | 0.00 | 0.00 | 42 | 1011.7 |
| 20260507164520 | 52 | 0.0 | 6.0 | 0.00 | 0.00 | 0.00 | 46 | 1011.9 | |
| 20260507163520 | 50 | 0.0 | 3.0 | 0.00 | 0.00 | 0.00 | 45 | 1012.0 | |
| 20260507162520 | 50 | 0.0 | 3.0 | 0.00 | 0.00 | 0.00 | 47 | 1012.0 | |
| 20260507161529 | 49 | 0.0 | 3.0 | 0.00 | 0.00 | 0.00 | 49 | 1012.3 | |
| 20260507160518 | 49 | 225 | 1.0 | 6.0 | 0.00 | 0.00 | 0.00 | 45 | 1012.3 |
| 20260507155540 | 50 | 0.0 | 5.0 | 0.00 | 0.00 | 0.00 | 45 | 1012.4 | |
| 20260507154520 | 50 | 0.0 | 7.0 | 0.00 | 0.00 | 0.00 | 47 | 1012.5 | |
| 20260507153520 | 48 | 0.0 | 2.0 | 0.00 | 0.00 | 0.00 | 48 | 1012.5 | |
| 20260507152520 | 47 | 0.0 | 1.0 | 0.00 | 0.00 | 0.00 | 50 | 1012.6 | |
| 20260507151530 | 46 | 0.0 | 3.0 | 0.00 | 0.00 | 0.00 | 49 | 1012.6 | |
| 20260507150520 | 46 | 0.0 | 4.0 | 0.00 | 0.00 | 0.00 | 53 | 1012.7 | |
| 20260507145520 | 46 | 0.0 | 2.0 | 0.00 | 0.00 | 0.00 | 50 | 1012.8 | |
| 20260507144540 | 46 | 0.0 | 3.0 | 0.00 | 0.00 | 0.00 | 51 | 1012.9 | |
| 20260507143528 | 46 | 0.0 | 2.0 | 0.00 | 0.00 | 0.00 | 53 | 1013.0 | |
| 20260507142529 | 46 | 0.0 | 3.0 | 0.00 | 0.00 | 0.00 | 53 | 1013.1 | |
| 20260507141529 | 45 | 225 | 1.0 | 3.0 | 0.00 | 0.00 | 0.00 | 53 | 1013.2 |
| 20260507140521 | 45 | 0.0 | 2.0 | 0.00 | 0.00 | 0.00 | 57 | 1013.2 | |
| 20260507135520 | 44 | 0.0 | 5.0 | 0.00 | 0.00 | 0.00 | 57 | 1013.3 | |
| 20260507134520 | 43 | 0.0 | 2.0 | 0.00 | 0.00 | 0.00 | 61 | 1013.3 | |
| 20260507133520 | 41 | 0.0 | 3.0 | 0.00 | 0.00 | 0.00 | 64 | 1013.3 | |
| 20260507132540 | 40 | 0.0 | 1.0 | 0.00 | 0.00 | 0.00 | 67 | 1013.3 | |
| 20260507131519 | 39 | 0.0 | 0.0 | 0.00 | 0.00 | 0.00 | 69 | 1013.2 | |
| 20260507130520 | 38 | 0.0 | 1.0 | 0.00 | 0.00 | 0.00 | 70 | 1013.2 | |
| 20260507125545 | 37 | 0.0 | 0.0 | 0.00 | 0.00 | 0.00 | 73 | 1013.3 | |
| 20260507124539 | 36 | 0.0 | 0.0 | 0.00 | 0.00 | 0.00 | 74 | 1013.2 | |
| 20260507123529 | 36 | 0.0 | 0.0 | 0.00 | 0.00 | 0.00 | 75 | 1013.3 | |
| 20260507122520 | 35 | 0.0 | 0.0 | 0.00 | 0.00 | 0.00 | 77 | 1013.2 | |
| 20260507121521 | 34 | 0.0 | 0.0 | 0.00 | 0.00 | 0.00 | 79 | 1013.2 | |
| 20260507120522 | 33 | 0.0 | 0.0 | 0.00 | 0.00 | 0.00 | 82 | 1013.1 | |
| 20260507115541 | 32 | 0.0 | 0.0 | 0.00 | 0.00 | 0.00 | 84 | 1013.1 | |
| 20260507114545 | 31 | 0.0 | 0.0 | 0.00 | 0.00 | 0.00 | 87 | 1013.0 | |
| 20260507113529 | 30 | 0.0 | 0.0 | 0.00 | 0.00 | 0.00 | 89 | 1012.8 | |
| 20260507112520 | 29 | 0.0 | 0.0 | 0.00 | 0.00 | 0.00 | 89 | 1012.8 | |
| 20260507111600 | 29 | 0.0 | 0.0 | 0.00 | 0.00 | 0.00 | 89 | 1012.6 | |
| 20260507110520 | 28 | 0.0 | 0.0 | 0.00 | 0.00 | 0.00 | 88 | 1012.5 | |
| 20260507105520 | 29 | 0.0 | 0.0 | 0.00 | 0.00 | 0.00 | 88 | 1012.6 | |
| 20260507104528 | 29 | 0.0 | 0.0 | 0.00 | 0.00 | 0.00 | 88 | 1012.5 | |
| 20260507103528 | 29 | 0.0 | 0.0 | 0.00 | 0.00 | 0.00 | 88 | 1012.5 | |
| 20260507102540 | 29 | 0.0 | 0.0 | 0.00 | 0.00 | 0.00 | 87 | 1012.5 | |
| 20260507101519 | 29 | 0.0 | 0.0 | 0.00 | 0.00 | 0.00 | 87 | 1012.4 | |
| 20260507100537 | 29 | 0.0 | 0.0 | 0.00 | 0.00 | 0.00 | 86 | 1012.5 | |
| 20260507095539 | 30 | 0.0 | 0.0 | 0.00 | 0.00 | 0.00 | 85 | 1012.6 | |
| 20260507094520 | 30 | 0.0 | 0.0 | 0.00 | 0.00 | 0.00 | 84 | 1012.6 | |
| 20260507093520 | 31 | 0.0 | 0.0 | 0.00 | 0.00 | 0.00 | 82 | 1012.7 | |
| 20260507092519 | 32 | 0.0 | 0.0 | 0.00 | 0.00 | 0.00 | 82 | 1012.7 | |
| 20260507091519 | 32 | 0.0 | 0.0 | 0.00 | 0.00 | 0.00 | 82 | 1012.7 | |
| 20260507090536 | 32 | 0.0 | 0.0 | 0.00 | 0.00 | 0.00 | 80 | 1012.8 | |
| 20260507085520 | 32 | 0.0 | 0.0 | 0.00 | 0.00 | 0.00 | 81 | 1012.8 | |
| 20260507084540 | 32 | 0.0 | 0.0 | 0.00 | 0.00 | 0.00 | 82 | 1012.9 | |
| 20260507083528 | 32 | 0.0 | 0.0 | 0.00 | 0.00 | 0.00 | 83 | 1012.9 | |
| 20260507082519 | 32 | 0.0 | 0.0 | 0.00 | 0.00 | 0.00 | 83 | 1012.9 | |
| 20260507081528 | 32 | 0.0 | 0.0 | 0.00 | 0.00 | 0.00 | 81 | 1012.8 | |
| 20260507080528 | 33 | 0.0 | 0.0 | 0.00 | 0.00 | 0.00 | 80 | 1013.0 | |
| 20260507075519 | 33 | 0.0 | 0.0 | 0.00 | 0.00 | 0.00 | 82 | 1012.8 | |
| 20260507074539 | 32 | 0.0 | 0.0 | 0.00 | 0.00 | 0.00 | 81 | 1012.9 | |
| 20260507073519 | 32 | 0.0 | 0.0 | 0.00 | 0.00 | 0.00 | 80 | 1013.1 | |
| 20260507072519 | 33 | 0.0 | 0.0 | 0.00 | 0.00 | 0.00 | 78 | 1013.3 | |
| 20260507071539 | 34 | 0.0 | 0.0 | 0.00 | 0.00 | 0.00 | 76 | 1013.4 | |
| 20260507070536 | 35 | 0.0 | 0.0 | 0.00 | 0.00 | 0.00 | 73 | 1013.5 | |
| 20260507065519 | 35 | 0.0 | 0.0 | 0.00 | 0.00 | 0.00 | 72 | 1013.6 | |
| 20260507064528 | 36 | 0.0 | 0.0 | 0.00 | 0.00 | 0.00 | 73 | 1013.8 | |
| 20260507063519 | 36 | 0.0 | 0.0 | 0.00 | 0.00 | 0.00 | 70 | 1013.8 |